Wind_Speed
10 11 11 11 12 13 14 15 16 17 17 18 20 22 23 25 27 29 31 32 32 32 31 31 31 32 33 33 35 35 35 31 24 21 18 15 13 12 12 12 12 12 13 14 14 15 14 14 15 15 14 14 14 14 14 12 11 11 11 12 13 13 12 11 11 11 13 14 15 17 19 22 21 23 25 24 24 22 21 18 13 12 13 15 18 21 23 22
9 9 9 10 11 12 13 14 15 16 17 18 19 21 22 24 27 29 31 32 32 32 31 31 32 32 33 35 36 36 34 30 24 21 18 15 13 11 11 11 12 13 14 15 16 16 15 15 14 14 14 14 14 14 14 13 12 11 11 12 12 14 15 12 12 13 15 15 16 18 20 22 22 24 27 29 27 21 20 18 12 11 11 13 17 21 24 27
7 7 8 8 10 11 12 13 15 16 17 17 18 20 22 24 27 29 30 31 32 32 32 32 32 32 34 35 36 36 34 28 22 20 17 14 12 11 12 13 14 14 15 16 16 16 15 15 15 15 15 14 14 13 13 13 12 11 13 13 12 15 16 14 14 15 17 17 18 19 21 22 21 24 28 31 30 24 25 24 18 17 17 16 17 19 24 28
5 6 6 7 8 9 11 13 14 16 17 17 18 20 23 25 27 29 30 31 32 32 32 32 32 32 33 34 35 35 33 26 19 18 14 12 12 12 13 13 14 14 15 16 16 16 15 15 16 16 16 15 14 13 13 12 12 12 14 14 12 16 16 15 18 19 19 20 20 21 23 23 23 25 28 31 32 28 26 24 21 23 22 21 20 20 24 27
3 4 5 6 7 9 11 12 14 15 16 17 18 20 22 25 26 28 30 31 31 32 33 32 31 32 33 34 34 34 32 24 17 15 12 11 11 12 12 13 14 15 16 17 16 16 15 15 16 16 16 15 15 14 13 12 14 13 12 14 14 18 18 17 21 22 22 22 21 23 25 26 26 27 28 30 32 29 26 24 25 26 25 25 24 22 22 23
3 3 4 5 7 9 10 12 13 14 15 16 17 19 22 24 26 28 29 31 32 33 33 32 31 32 33 33 32 33 30 22 15 12 10 10 10 11 12 13 15 16 17 17 16 15 15 16 16 15 15 14 16 15 14 14 16 14 12 14 15 20 22 20 23 25 25 25 24 24 26 27 29 29 29 30 30 27 27 28 30 30 31 32 31 28 23 23
4 4 4 5 7 8 10 11 12 13 14 15 17 19 21 23 26 27 29 31 32 33 33 32 32 33 32 31 31 30 27 20 14 10 9 9 10 11 13 14 15 16 17 17 17 16 16 16 16 16 15 15 16 16 16 16 17 16 14 15 17 21 23 22 24 26 27 28 26 26 27 27 29 31 29 29 28 28 29 30 31 34 35 36 36 34 30 29
6 5 4 5 6 8 9 11 12 13 14 15 17 18 20 23 25 27 29 30 31 32 33 33 33 33 31 30 29 26 21 17 12 9 9 9 10 13 15 15 15 16 17 18 18 17 17 17 18 18 17 17 18 17 18 19 18 17 18 19 19 21 22 23 25 26 28 30 30 29 28 25 25 30 27 25 28 29 29 30 33 35 36 38 38 38 36 34
8 6 6 6 7 8 9 10 12 13 14 15 16 18 21 23 25 27 29 30 31 32 33 33 33 32 30 28 27 23 17 13 9 9 9 9 11 13 16 17 17 17 18 20 20 20 20 21 20 20 20 19 18 19 20 21 19 19 21 22 23 22 22 23 24 26 27 30 33 33 29 24 23 26 24 25 29 28 28 32 35 37 38 40 41 41 40 38
9 8 7 7 8 8 9 10 11 13 14 15 17 19 21 23 25 27 29 30 31 32 32 33 33 32 29 26 25 20 13 10 8 9 9 9 12 14 17 20 19 18 20 22 22 22 23 22 22 21 21 20 19 21 21 20 20 23 24 24 25 24 23 24 24 25 26 30 34 34 33 29 23 22 24 27 29 28 30 32 35 37 38 40 43 45 43 39
11 10 9 9 9 9 10 11 12 13 14 16 17 19 22 23 25 27 29 31 31 31 32 34 33 31 28 25 23 17 10 8 9 10 10 11 13 15 18 20 21 21 21 23 24 24 24 23 22 21 20 20 21 21 20 20 23 25 27 26 25 23 22 22 23 25 28 30 33 38 38 34 27 23 25 28 30 32 33 34 36 38 39 42 46 46 42 38
12 12 11 10 10 11 12 12 14 15 16 17 18 20 22 24 26 28 29 31 31 31 33 34 33 30 27 24 21 14 9 8 9 10 10 12 15 16 18 20 23 23 22 24 25 24 24 23 21 20 20 20 21 20 19 22 25 26 28 28 26 23 19 20 24 26 29 30 33 39 40 35 32 31 29 30 32 35 35 36 38 38 41 45 47 46 42 39
14 14 13 12 13 13 13 14 15 16 17 18 19 21 22 24 26 28 30 31 31 31 33 33 31 29 25 22 19 13 9 9 10 11 13 15 16 17 18 20 24 24 23 24 25 24 24 23 21 21 20 20 21 21 21 24 26 26 27 28 28 26 20 19 25 28 28 29 31 37 40 38 36 35 35 36 37 38 38 38 38 38 43 46 46 45 43 41
15 15 15 15 15 14 15 16 17 18 19 20 21 22 23 24 26 28 29 31 30 31 33 32 31 27 24 21 16 11 10 10 10 12 16 17 18 18 19 22 26 25 24 25 24 24 24 23 22 22 22 22 23 23 24 25 25 26 26 25 26 30 27 23 25 28 30 31 32 36 41 43 40 37 38 41 42 43 43 42 41 42 44 45 43 43 44 42
16 17 17 17 16 16 17 18 19 20 20 21 22 23 24 25 26 27 29 30 31 32 33 32 29 25 23 20 14 10 11 10 11 15 18 19 19 18 21 25 26 25 25 24 24 24 24 23 22 23 23 24 24 24 24 23 23 24 25 26 26 31 33 28 25 28 32 34 34 36 41 47 45 41 41 43 46 48 48 46 44 44 44 42 41 42 43 42
17 18 18 18 18 18 19 20 21 21 22 23 23 24 26 26 26 27 29 30 31 33 34 33 28 23 21 17 12 11 10 10 12 16 18 20 19 18 24 27 26 25 25 23 24 24 24 23 22 22 23 24 24 23 22 21 22 22 24 29 30 31 35 33 29 29 33 37 36 36 41 49 49 45 44 44 48 50 52 51 46 44 44 42 41 42 42 41
18 19 20 20 19 20 20 21 22 22 23 24 24 25 26 27 27 27 29 30 32 35 35 33 27 21 18 13 10 10 10 11 14 16 19 20 18 19 25 27 26 26 24 23 23 23 23 22 21 21 22 23 22 21 21 19 21 23 25 28 31 32 34 35 34 33 35 39 41 40 44 51 51 48 47 47 49 51 51 50 46 43 43 42 42 41 41 41
19 20 21 21 21 21 22 22 23 23 24 25 26 27 27 28 28 27 28 30 34 35 35 33 26 19 14 10 11 11 10 12 15 18 21 20 18 20 26 28 27 26 23 22 23 22 21 20 21 21 18 18 18 20 19 18 21 26 27 30 33 35 35 35 35 36 39 42 44 46 50 54 53 51 50 49 51 53 49 46 45 44 42 42 41 39 39 39
21 22 22 23 23 22 23 23 24 25 25 26 27 28 29 28 27 28 28 32 35 35 36 33 24 17 12 10 11 10 10 13 17 21 22 20 19 22 27 28 27 25 23 21 21 21 19 20 21 18 14 14 15 18 19 19 23 25 27 30 32 37 38 35 33 34 39 44 46 47 53 58 56 54 52 52 53 51 46 45 44 41 40 39 37 36 37 38
22 23 24 25 25 24 24 24 25 26 27 27 28 30 31 31 30 32 33 34 35 36 35 28 20 15 10 9 10 11 12 14 19 23 21 18 18 23 28 28 25 24 23 21 19 19 20 20 18 15 13 13 15 18 19 20 21 24 27 29 30 34 38 36 33 34 37 42 46 48 54 59 57 55 54 54 53 48 45 44 41 38 37 36 34 34 36 36
23 24 25 26 26 25 25 25 26 27 29 30 31 32 33 34 35 37 39 36 34 35 31 21 14 11 8 8 11 13 14 16 22 24 20 19 21 26 29 28 25 25 23 21 20 20 19 17 15 12 12 13 16 17 18 19 20 23 25 28 30 31 37 37 33 34 36 39 47 49 53 60 58 55 56 52 48 46 44 40 36 35 35 35 36 34 34 32
25 25 26 26 27 27 26 26 26 27 30 31 31 32 32 34 35 37 40 38 37 35 24 14 10 7 6 7 10 14 17 20 23 23 21 21 24 29 30 28 27 27 25 22 21 21 18 14 11 10 11 14 15 15 18 20 20 22 24 27 30 30 35 40 37 36 37 39 46 49 53 62 60 54 54 49 43 42 38 34 32 33 34 36 37 34 31 31
26 26 27 27 28 27 27 27 26 27 30 30 31 31 32 34 35 36 39 39 39 31 17 11 9 5 5 7 9 13 17 21 24 25 24 24 27 30 29 28 28 26 25 23 23 24 20 13 8 9 12 14 13 15 19 21 21 22 23 25 28 30 30 36 43 44 43 43 46 48 52 61 60 52 51 48 40 34 29 28 28 29 32 32 32 30 30 32
27 27 27 27 28 28 27 27 28 28 29 30 31 31 32 34 35 37 38 40 38 25 13 10 8 5 6 8 10 14 17 20 23 27 27 28 31 31 29 31 29 26 25 24 24 24 20 14 10 12 14 14 16 18 20 22 22 20 21 23 25 28 26 31 41 45 51 50 39 36 42 57 59 49 50 48 34 24 21 22 23 23 25 25 26 29 32 36
28 28 27 27 28 28 28 28 28 29 29 30 31 31 32 33 35 37 38 39 33 18 10 10 7 6 7 9 12 15 17 19 23 27 29 31 30 30 31 31 28 27 26 25 25 23 18 13 13 14 14 16 19 22 22 21 21 19 19 19 20 25 27 31 37 42 50 46 31 26 27 43 58 50 47 41 25 18 15 13 16 16 20 25 29 34 37 40
29 28 28 28 28 28 28 28 28 29 29 29 30 31 32 33 34 36 38 35 23 10 9 10 7 9 12 12 14 15 16 21 26 29 30 29 29 31 31 28 27 26 25 26 25 20 16 15 16 15 15 19 22 23 22 18 19 18 15 17 19 23 27 32 38 40 41 39 39 37 21 28 51 46 35 28 19 23 22 14 16 19 25 33 36 41 44 47
29 28 28 28 28 28 29 29 28 29 28 28 29 30 32 32 33 36 35 22 10 7 9 9 10 14 17 15 14 15 19 25 29 30 30 30 32 32 29 28 25 23 25 27 24 19 18 17 15 16 18 22 24 22 19 15 14 15 15 18 19 24 31 34 37 38 40 43 41 36 23 23 33 25 20 26 26 28 28 22 23 26 31 38 42 46 50 53
29 29 28 28 29 29 29 29 29 28 28 28 29 30 31 31 32 34 25 8 6 11 11 12 15 17 18 16 14 17 24 28 28 30 32 33 33 31 29 27 23 23 25 23 22 21 18 15 15 19 21 22 21 18 15 11 11 14 15 18 23 30 35 33 34 36 38 38 26 22 20 13 19 24 26 34 31 23 24 25 27 30 33 40 45 50 53 55
30 29 29 29 30 29 29 29 29 28 28 28 29 29 30 30 31 29 15 3 9 14 14 17 18 16 17 17 18 23 28 30 28 31 34 34 33 31 28 26 24 25 23 21 24 20 13 15 18 21 21 19 17 14 13 11 11 15 16 24 32 33 31 28 30 31 30 25 11 9 13 4 19 37 30 23 20 17 22 24 26 33 40 45 48 51 54 56
30 30 29 30 30 30 29 29 28 29 28 28 28 28 30 30 28 20 6 5 12 17 18 17 16 17 20 21 24 28 30 31 32 33 34 33 33 30 26 25 24 23 22 23 20 13 12 18 19 19 17 14 13 12 11 10 11 17 23 33 36 30 29 28 22 19 18 12 4 1 16 14 14 22 17 14 14 14 21 25 30 40 46 49 51 53 57 60
31 30 30 30 30 30 30 28 28 28 27 28 28 28 29 29 23 9 3 12 18 16 16 16 19 24 25 27 29 31 32 33 35 35 34 33 32 28 24 23 23 24 24 20 15 14 16 16 16 16 13 9 8 7 7 10 14 24 31 30 26 26 30 21 9 7 7 6 4 10 27 24 12 14 18 17 13 13 23 32 39 45 47 50 54 57 61 62
32 31 31 31 31 31 30 29 28 28 27 28 27 27 28 25 17 9 9 15 14 12 18 23 27 29 29 30 32 33 34 34 35 34 33 32 29 26 23 22 23 24 20 15 16 18 13 12 13 12 11 6 6 7 11 15 20 27 24 18 13 16 19 8 2 4 7 13 17 22 29 24 21 25 22 14 12 19 33 40 41 44 48 55 59 60 61 60
32 32 31 32 32 31 31 30 29 28 28 28 26 27 25 16 11 14 15 16 14 19 27 30 31 31 31 32 33 34 35 34 33 31 29 28 26 25 23 22 23 21 17 16 18 14 7 8 9 8 9 8 8 12 16 18 25 19 10 13 9 3 6 5 5 4 6 20 36 38 28 17 16 14 8 13 25 33 39 40 39 45 52 58 59 58 58 56
33 32 32 32 32 32 31 30 30 29 28 28 27 26 22 15 17 22 22 21 21 26 30 30 32 33 33 34 34 34 32 30 28 26 24 24 23 23 22 23 23 18 17 16 13 9 6 7 8 8 8 8 10 17 15 20 24 9 5 16 11 4 4 4 5 3 5 24 46 43 21 8 11 12 13 28 39 36 35 38 44 51 55 57 58 57 56 55
33 33 33 33 33 32 31 31 31 30 28 28 27 24 23 22 23 24 23 23 25 27 31 33 34 36 36 34 31 29 27 25 25 24 24 23 23 23 23 23 21 16 14 12 11 11 9 8 9 10 11 14 16 13 15 23 14 4 10 16 10 10 11 11 10 12 12 19 27 27 22 24 28 30 34 37 34 32 39 47 51 54 57 58 58 57 57 56
34 35 35 34 34 33 32 32 31 30 29 27 26 28 30 29 27 26 26 28 29 31 34 34 33 31 30 27 25 25 25 24 25 25 24 23 23 22 21 19 17 14 13 13 14 12 8 7 10 12 15 18 12 9 19 20 7 9 17 11 8 11 13 14 11 14 13 10 12 18 29 40 40 35 33 33 35 44 51 51 53 57 60 60 59 58 59 58
36 36 37 36 35 34 34 33 31 30 29 27 28 33 36 34 32 32 30 30 32 32 32 31 29 27 26 26 26 26 26 24 23 22 21 20 19 18 18 18 17 16 15 16 15 11 13 16 13 13 15 12 12 21 22 10 10 19 15 6 8 8 9 8 3 5 7 6 10 20 30 38 33 19 19 33 47 53 52 52 57 61 61 59 60 61 62 62
37 38 39 38 36 36 35 33 32 31 28 28 32 35 37 36 34 32 30 31 32 32 32 31 29 28 28 28 28 27 26 24 23 21 21 19 18 18 19 18 18 18 17 18 15 11 15 18 11 6 7 9 16 29 21 12 18 21 8 5 10 5 6 6 1 2 5 4 6 17 30 31 19 13 24 43 53 50 49 55 60 61 61 60 63 64 64 66
39 40 41 40 37 36 35 33 32 30 29 32 35 35 35 36 34 32 32 33 33 33 34 34 31 30 30 30 30 30 28 27 25 23 21 17 17 20 21 21 22 21 19 17 14 13 13 12 8 8 10 15 23 24 20 20 22 15 5 6 10 7 7 9 7 6 6 4 3 11 21 17 9 22 42 49 50 47 49 56 60 60 61 62 65 67 68 69
40 42 43 41 38 37 35 33 32 31 32 36 38 36 36 37 36 35 35 34 33 34 35 35 33 32 33 33 32 31 29 29 27 25 23 21 21 24 24 24 23 20 18 15 15 16 14 12 13 14 18 24 26 23 23 24 18 10 7 7 14 15 11 12 15 12 8 2 0 3 14 20 23 36 48 48 49 49 50 57 60 60 62 65 68 69 70 71
41 43 45 41 38 37 34 33 34 33 35 39 39 38 37 38 37 37 36 35 35 36 36 37 36 35 36 35 34 32 30 29 29 27 26 26 26 25 23 22 20 18 17 16 16 17 15 15 19 24 27 27 26 24 23 21 14 10 7 10 19 19 13 10 9 10 9 6 5 5 12 31 39 39 45 49 50 51 54 57 59 61 65 69 70 70 72 74
43 45 45 41 38 37 35 35 37 36 38 41 40 39 39 39 39 39 38 37 37 37 37 38 37 37 36 35 35 33 30 30 31 29 28 29 28 26 25 24 21 19 18 18 19 19 18 19 23 29 29 25 24 22 15 12 12 11 10 16 23 19 13 9 6 11 19 16 15 13 14 33 44 41 46 50 51 55 57 57 59 65 70 72 72 73 75 77
44 45 45 42 39 38 36 37 40 40 42 43 42 41 41 41 42 41 40 38 38 38 38 38 38 38 37 35 34 32 30 29 30 30 30 30 29 27 26 24 21 20 19 19 19 18 18 17 20 27 28 22 18 14 9 8 10 13 17 23 26 21 19 17 13 15 20 20 18 10 11 33 47 46 48 51 53 56 57 58 63 68 73 75 74 75 78 82
44 44 44 43 41 40 40 43 44 44 44 44 43 44 44 43 44 43 41 39 38 39 40 40 40 39 37 35 32 31 29 27 25 27 28 27 27 26 24 23 22 21 20 19 18 19 18 15 15 20 20 14 8 3 4 8 11 16 24 27 25 24 23 20 17 13 14 20 21 9 11 36 51 50 52 55 55 56 58 62 67 70 76 77 74 78 83 86
42 43 44 44 43 43 46 46 45 44 45 44 45 47 47 46 46 44 41 40 40 40 41 42 41 39 36 34 32 31 31 29 26 26 27 27 27 26 24 23 22 21 21 21 21 21 21 21 19 15 8 6 8 8 11 16 20 24 29 28 25 24 23 20 18 12 10 22 30 20 21 44 54 52 55 59 57 58 62 66 69 72 75 75 76 82 87 89
41 44 46 46 45 46 49 49 46 45 46 45 47 49 48 48 46 43 41 40 40 40 40 41 40 38 36 35 34 33 32 30 28 28 29 29 27 24 22 22 21 21 22 23 23 22 22 23 23 19 18 18 20 22 22 22 23 27 29 30 28 24 22 22 19 16 17 27 36 34 34 47 54 54 57 59 57 60 66 69 70 73 74 76 80 85 89 91
41 47 50 47 44 44 46 47 46 45 45 44 46 49 48 46 44 42 41 40 40 39 38 39 39 38 38 37 36 33 31 30 30 31 31 30 29 26 24 23 23 23 23 23 22 20 21 24 23 23 27 26 23 24 23 21 22 24 27 31 31 24 20 22 20 19 22 23 30 38 42 46 53 55 55 57 59 63 68 70 70 71 75 79 83 87 90 94
45 50 52 48 47 47 47 49 48 46 45 45 46 48 47 46 46 45 43 41 40 40 38 39 40 39 39 38 35 33 31 30 30 31 30 29 28 27 26 24 23 23 22 22 22 20 21 25 24 25 27 24 20 21 23 21 20 20 24 30 31 23 18 20 20 20 22 23 31 42 46 47 52 53 51 55 61 65 69 71 70 73 79 82 85 87 90 96
49 52 53 51 53 54 54 55 53 51 51 50 50 51 50 50 50 47 44 42 43 43 40 40 41 39 37 36 34 33 33 30 28 28 26 25 25 24 24 23 22 23 22 21 20 19 20 23 24 24 27 26 23 22 22 19 16 18 26 28 24 19 17 19 20 20 22 28 37 43 44 47 50 49 51 57 63 68 72 73 75 79 83 85 86 88 92 98
53 54 53 53 55 56 56 57 56 55 55 54 54 55 54 53 52 49 47 47 46 45 42 41 41 39 36 34 33 34 33 28 26 26 24 23 23 23 22 22 22 23 21 19 19 19 20 23 24 25 29 31 26 21 19 15 13 21 26 20 16 16 17 19 20 21 23 30 37 41 45 50 50 49 53 61 67 71 74 77 80 82 83 85 88 90 95 100
54 54 53 54 57 57 57 59 59 57 58 58 58 57 55 53 51 49 48 48 46 45 43 42 41 37 35 35 36 34 30 26 26 26 25 24 24 23 22 22 22 21 20 19 21 22 22 24 26 26 28 30 26 21 18 15 18 23 20 13 13 15 17 21 23 21 23 30 36 40 45 49 50 51 57 64 69 73 76 79 83 82 81 84 88 91 97 101
55 56 55 57 59 60 61 64 62 60 62 63 60 57 54 51 48 46 46 46 45 44 43 41 40 39 39 40 37 32 28 27 27 27 26 26 25 24 22 23 23 21 20 20 22 24 23 24 25 21 20 26 25 20 20 20 16 13 12 13 15 14 17 24 26 23 22 27 33 39 42 43 47 54 61 66 70 74 78 80 80 79 79 82 86 91 96 99
Wind_Direction
53 49 45 39 35 32 29 26 23 22 20 17 14 11 9 7 4 3 2 2 1 2 3 4 4 5 4 5 4 3 2 0 1 358 353 349 347 344 339 342 347 356 1 1 4 7 8 5 3 359 356 353 347 342 338 339 334 328 325 327 327 322 334 339 327 325 328 335 336 334 328 326 333 328 325 326 326 341 352 348 333 309 308 314 312 311 313 317
51 47 40 36 31 27 24 22 21 19 17 14 10 8 6 4 3 1 0 0 359 359 0 0 2 4 2 2 1 1 0 358 360 1 359 359 2 4 4 10 14 15 12 9 8 7 6 3 2 359 355 354 347 341 336 335 333 328 325 328 328 322 332 340 330 325 324 328 327 326 324 324 332 328 325 325 326 344 352 340 319 295 296 301 304 312 320 321
46 41 36 31 25 21 19 18 18 17 14 10 6 4 4 3 2 0 359 358 357 357 358 358 359 0 1 0 359 359 358 356 359 2 3 5 12 20 22 26 24 22 19 12 8 4 3 2 2 359 355 351 345 340 332 330 332 330 326 326 325 319 329 337 328 322 321 325 324 321 320 324 330 324 322 321 323 337 339 328 315 302 297 294 299 312 320 319
36 32 28 24 20 14 12 13 13 13 11 6 2 0 2 3 1 360 357 356 356 356 356 356 356 358 359 359 357 357 356 355 358 359 5 13 22 30 30 30 26 24 19 11 8 4 2 1 360 354 350 345 340 336 328 326 328 330 326 321 318 315 325 329 318 318 321 323 322 320 321 325 327 322 320 318 321 333 335 330 329 324 317 310 308 309 311 311
14 16 16 16 12 7 8 8 7 8 7 3 358 357 360 1 0 358 356 354 354 353 354 355 356 358 358 357 356 355 353 355 355 354 12 27 31 36 33 29 23 19 15 11 7 3 360 357 353 348 344 338 335 331 325 324 324 328 323 316 313 311 320 319 311 316 319 319 320 320 323 326 326 322 320 318 323 333 336 333 331 329 326 321 320 318 309 305
343 351 359 2 3 3 4 3 1 1 1 359 355 354 356 358 358 357 355 353 351 352 353 355 357 358 358 356 354 353 352 354 351 352 19 30 34 39 32 26 18 13 11 8 4 359 354 348 346 345 341 332 329 327 322 323 322 322 316 312 312 311 317 314 309 314 315 316 319 320 324 326 324 321 321 323 328 334 335 334 331 332 334 334 336 337 325 310
324 326 337 349 355 358 358 357 355 353 353 352 352 351 351 355 357 355 353 351 351 351 352 355 356 356 357 354 352 351 351 350 347 355 14 22 35 34 22 13 7 5 4 3 360 354 347 341 341 339 335 327 325 323 319 320 318 315 310 308 310 312 315 312 312 312 311 314 317 319 322 324 322 319 326 332 333 336 337 335 334 335 336 337 339 341 336 326
317 312 321 336 345 349 350 350 348 345 344 344 347 348 348 351 354 354 352 351 350 350 351 355 355 353 354 352 349 349 349 349 347 356 8 19 29 20 8 2 357 358 359 357 353 348 343 338 337 336 332 326 323 319 317 318 315 311 310 310 312 315 315 314 313 310 309 313 315 319 320 321 319 317 329 336 333 336 337 335 334 334 334 335 337 339 338 334
315 309 314 326 334 338 340 341 340 338 336 336 341 345 347 348 350 352 351 351 350 350 353 355 353 351 351 349 347 346 349 351 350 356 5 10 8 1 358 356 351 350 350 349 346 343 342 339 338 335 330 325 321 318 316 315 313 312 312 315 317 320 320 317 314 310 312 315 315 318 317 318 321 320 332 336 331 336 337 336 335 333 333 334 337 339 338 336
312 309 309 316 322 326 328 332 333 331 330 332 336 341 347 347 348 350 350 350 350 352 355 353 350 349 347 345 343 344 349 352 349 351 356 354 346 345 350 353 349 343 341 342 341 340 341 340 337 333 328 324 319 317 316 314 314 314 315 318 320 322 324 320 316 314 316 315 314 315 315 319 326 328 335 334 331 336 338 338 335 332 332 333 336 338 337 336
310 308 305 308 312 315 320 324 325 324 325 329 334 339 345 345 346 347 349 350 350 354 356 351 348 347 344 341 339 342 347 345 340 341 344 340 335 336 342 347 347 342 337 338 338 338 339 338 337 333 328 322 320 319 318 316 316 316 316 320 320 321 325 322 318 317 316 317 316 316 317 320 327 333 337 335 331 334 337 337 335 332 332 333 334 335 335 332
308 307 303 303 304 309 315 318 318 319 323 328 333 338 342 344 344 345 348 348 351 356 355 349 347 344 341 337 334 336 336 335 335 336 335 331 329 328 331 339 343 340 335 335 336 336 337 337 336 332 328 324 323 322 319 319 319 318 318 319 318 318 324 324 319 317 318 321 319 318 319 320 327 333 336 334 331 333 335 336 335 332 331 332 331 330 332 331
307 307 304 300 301 306 311 313 313 316 321 326 331 335 338 340 341 345 346 346 351 355 352 350 347 342 337 331 328 325 322 327 330 329 328 328 325 324 326 333 338 337 334 334 334 334 336 336 335 332 330 327 325 323 323 322 321 319 318 318 318 316 321 325 319 318 320 320 319 320 319 317 325 333 333 331 331 332 334 336 335 332 330 329 327 328 331 331
305 307 304 299 299 304 307 309 310 314 319 324 328 332 334 337 339 343 343 344 350 352 350 350 347 341 334 325 321 315 314 321 324 325 327 328 324 322 327 330 334 335 334 334 332 333 335 335 336 333 330 328 326 325 325 323 320 319 317 317 317 314 318 326 323 321 321 319 319 320 315 313 323 332 331 330 330 331 333 336 335 333 329 325 326 329 330 329
303 305 303 300 299 301 304 305 308 312 317 322 326 327 329 332 337 339 340 343 348 348 349 350 347 340 328 319 314 308 310 313 319 324 325 325 322 323 330 331 332 333 333 333 332 332 333 334 334 332 330 327 323 323 324 321 319 320 319 316 316 313 316 324 328 326 323 319 321 322 314 314 324 331 331 330 330 331 333 335 335 332 327 325 328 328 325 325
299 301 302 301 300 300 300 302 306 310 315 320 323 323 325 329 334 336 338 342 344 345 348 349 347 338 322 312 308 306 304 306 316 321 320 320 319 325 331 331 330 331 332 332 331 331 331 332 332 330 328 323 322 324 324 320 317 320 319 315 314 314 314 321 330 329 323 318 319 321 313 312 322 328 330 332 332 331 332 333 334 330 327 328 327 324 322 322
294 298 300 300 300 298 297 300 304 308 314 317 318 319 321 326 331 333 337 339 340 343 345 348 347 333 317 306 300 300 299 304 314 318 318 317 316 322 329 330 329 329 331 331 330 329 329 330 329 328 326 322 324 325 325 323 318 319 317 312 312 312 312 319 328 329 322 317 318 319 312 311 318 323 328 333 332 330 332 333 332 328 327 326 323 320 318 317
291 295 298 299 299 297 296 298 302 306 312 315 316 317 319 323 328 330 332 334 337 342 345 347 345 329 312 298 293 297 300 308 316 320 319 316 313 318 325 329 328 327 330 331 328 326 328 329 326 327 326 322 323 323 325 325 319 318 316 312 312 312 311 316 325 326 320 316 317 318 314 313 318 322 326 331 329 328 332 334 330 327 326 322 319 317 314 312
288 293 296 298 298 297 297 298 301 305 309 312 313 315 317 320 322 323 329 334 338 344 346 347 343 327 308 295 293 291 296 308 319 322 318 314 312 315 322 326 325 324 327 329 326 324 326 328 326 328 328 325 322 319 319 317 315 314 310 309 310 310 310 314 321 319 315 313 315 317 314 313 319 323 327 330 328 328 335 335 328 325 322 318 315 313 309 307
287 291 294 296 297 298 298 298 301 305 308 310 311 313 316 319 322 324 331 337 342 345 346 347 344 328 307 291 283 277 287 304 319 322 316 310 308 311 319 322 321 321 323 327 327 327 330 332 329 328 327 325 320 314 313 312 312 310 306 306 306 306 308 313 316 312 311 311 311 314 312 312 318 321 324 328 328 332 337 333 325 321 318 314 312 309 305 303
286 289 293 295 297 299 298 299 303 306 308 311 314 317 320 324 328 329 332 339 344 344 345 350 347 329 305 282 272 273 280 294 314 321 316 310 309 312 317 321 322 323 326 330 330 330 334 332 327 325 323 320 316 312 310 309 309 306 305 304 303 304 305 308 311 307 308 308 308 311 309 310 316 319 324 328 328 334 334 327 320 315 313 308 305 304 302 302
284 288 292 295 297 299 300 301 305 307 309 312 315 320 322 325 328 329 330 336 341 343 347 357 351 325 301 285 274 278 280 289 307 317 315 310 310 314 318 322 325 326 327 330 329 330 334 332 323 319 316 315 313 311 309 308 307 306 305 303 303 306 307 308 310 307 307 307 307 308 306 309 313 317 325 327 327 333 327 316 312 307 303 298 297 301 303 303
284 288 292 296 298 300 302 303 306 307 309 311 315 319 322 323 324 326 329 333 338 343 350 358 351 320 287 279 279 288 290 293 306 316 316 311 312 316 319 322 325 325 324 328 330 331 334 334 320 311 314 313 311 312 311 307 305 304 302 302 303 308 311 313 314 313 311 309 308 307 305 307 311 317 324 325 328 331 316 304 301 294 294 294 299 306 308 310
284 288 292 297 299 302 303 304 306 306 308 311 315 318 320 321 323 325 329 332 335 342 352 354 353 326 289 275 280 290 292 297 307 316 318 316 317 319 321 323 325 325 323 327 330 328 330 333 324 317 314 311 312 315 312 305 302 300 300 304 303 304 306 306 309 309 309 309 310 312 308 306 310 317 320 323 329 323 299 290 289 283 287 293 301 308 311 317
283 287 293 297 300 302 303 304 305 305 308 311 314 317 318 320 322 325 330 332 333 339 348 346 344 330 309 283 285 291 292 300 310 314 316 317 318 319 320 322 322 321 320 322 325 325 327 329 321 317 311 309 311 311 308 301 297 298 301 302 298 300 302 301 305 308 310 310 309 316 315 305 308 313 315 323 334 322 301 286 288 292 300 303 308 312 315 320
282 288 293 296 300 302 303 303 303 304 308 310 312 314 316 319 323 326 331 332 330 332 341 338 331 327 319 301 295 294 296 306 312 313 315 316 317 318 318 318 317 316 315 318 321 322 323 322 317 313 309 307 308 307 304 297 295 299 301 300 298 300 302 303 306 306 305 302 299 306 306 293 303 310 315 326 336 318 307 297 303 317 324 323 324 324 325 324
283 288 293 296 299 301 301 302 303 305 307 309 311 312 315 319 323 327 332 333 326 324 332 329 321 319 316 310 301 295 301 310 312 312 314 315 315 315 313 313 312 311 313 315 315 318 320 316 311 308 307 306 305 304 299 292 294 299 300 300 300 301 302 303 303 300 299 298 300 307 303 282 293 304 310 316 316 307 300 301 311 322 330 332 331 329 327 326
283 288 292 295 297 299 300 301 303 305 307 308 309 311 314 318 322 327 334 338 308 316 322 319 319 317 314 309 299 296 305 311 310 310 313 313 312 311 310 309 307 307 312 310 308 314 315 307 305 306 306 304 302 297 291 289 290 293 295 297 301 304 305 306 306 303 302 301 303 314 309 279 281 297 308 309 305 299 301 309 318 325 331 330 328 327 326 324
283 287 291 293 295 297 298 301 303 304 306 307 308 310 313 317 321 326 332 305 299 311 313 315 317 316 314 309 300 301 308 310 308 309 310 310 309 308 306 304 305 306 308 306 306 310 309 304 307 306 302 298 295 287 282 283 286 290 293 300 307 308 309 313 311 306 301 295 292 324 334 327 293 303 312 311 306 310 314 317 323 328 330 328 325 324 322 319
282 286 290 291 294 296 297 300 301 302 304 305 306 309 312 315 320 328 330 275 300 307 307 313 316 314 311 306 303 305 309 309 308 308 307 307 306 307 305 304 305 304 304 307 306 303 305 305 305 301 294 287 283 275 274 276 281 297 306 311 312 315 320 319 308 297 292 284 184 346 333 336 305 305 317 318 317 323 323 324 323 322 322 322 322 321 320 320
282 286 288 291 293 294 296 299 299 301 302 302 305 307 310 314 316 313 249 296 306 304 306 314 314 311 309 306 305 307 309 307 307 307 306 305 303 302 301 301 303 305 308 307 299 302 308 303 302 297 284 279 268 249 264 274 291 310 318 322 323 326 329 322 288 270 275 274 243 297 318 319 287 285 304 308 300 301 321 328 325 322 322 321 321 320 320 320
281 285 287 290 292 293 295 297 298 299 300 300 303 305 310 316 306 267 265 299 305 301 308 313 311 310 308 306 306 307 308 306 305 306 304 302 300 297 296 297 302 308 310 302 300 310 306 293 296 281 259 248 222 248 282 291 312 322 326 338 344 336 334 325 236 265 251 268 287 306 315 304 279 284 293 296 295 305 319 322 318 318 320 321 321 321 320 322
280 284 286 288 290 292 293 295 296 297 297 298 300 303 308 312 288 274 282 291 292 298 306 309 308 308 306 304 305 306 307 304 303 303 301 300 297 295 297 299 304 307 302 300 307 317 316 297 288 254 242 209 211 282 296 309 327 333 345 356 0 358 334 312 296 296 262 287 300 310 310 288 287 296 277 299 310 310 311 310 310 316 322 325 327 327 328 329
279 282 284 287 289 290 292 293 294 294 294 294 296 300 300 283 273 285 291 291 295 300 305 307 307 306 304 303 304 305 304 302 301 300 298 296 293 293 296 301 305 303 297 302 308 310 306 291 267 244 245 240 274 298 303 323 329 320 353 344 327 259 268 269 283 308 310 303 306 312 310 275 306 306 284 299 304 304 308 313 319 325 328 331 331 331 333 333
278 280 283 285 287 288 290 290 290 291 291 291 294 293 282 272 279 290 294 296 298 302 304 305 304 302 302 302 303 303 301 297 297 297 293 291 287 287 292 297 299 296 294 301 306 302 289 273 268 252 255 284 296 293 309 327 327 269 321 324 295 276 259 240 264 290 295 295 301 308 295 286 296 296 295 299 300 310 322 327 329 330 332 333 332 333 334 334
277 279 281 283 284 286 287 287 288 287 287 289 288 282 276 277 283 288 292 296 299 301 303 302 302 301 301 302 301 300 298 294 292 291 288 287 286 286 289 292 290 287 288 290 297 301 283 268 276 271 282 296 294 297 321 327 317 305 318 306 286 292 260 244 272 295 297 282 284 299 295 297 304 305 305 306 314 326 331 332 332 332 333 334 333 333 333 334
277 279 280 281 283 284 284 285 284 283 284 284 279 277 279 282 285 288 291 295 298 300 299 297 299 298 296 297 297 296 296 292 289 286 284 287 288 286 288 287 284 285 286 288 291 290 288 293 288 277 283 281 291 317 323 308 296 316 318 301 317 308 247 239 259 299 298 266 280 294 293 300 306 305 309 316 323 332 334 333 332 332 334 334 332 333 333 333
277 279 279 280 282 283 282 282 281 281 281 278 274 276 281 284 287 290 293 295 297 297 293 290 290 291 290 291 292 293 292 286 282 281 282 286 284 281 283 285 284 285 286 288 286 279 293 304 297 257 252 254 299 318 316 292 310 323 316 300 327 321 254 274 274 259 279 264 286 294 297 301 295 284 312 323 328 333 333 331 332 332 333 333 331 332 332 331
277 279 279 280 281 281 280 280 279 278 275 272 273 276 281 285 289 292 292 294 295 292 289 286 285 286 286 287 288 288 286 282 279 277 278 280 278 278 282 283 284 285 285 284 280 280 291 298 273 240 261 288 304 311 305 305 317 319 287 295 324 326 292 294 292 257 247 269 292 298 303 303 283 299 314 325 330 330 330 330 331 331 331 331 331 331 331 331
277 278 278 279 280 280 280 279 276 274 271 272 274 276 281 286 290 292 292 293 292 289 286 285 284 282 283 284 283 282 282 280 277 274 274 273 273 278 281 281 280 281 282 277 276 283 285 275 263 260 277 295 302 303 305 309 307 281 267 311 329 327 319 309 299 269 234 231 228 303 296 281 284 306 317 326 329 326 328 329 328 329 330 330 330 330 330 329
276 276 277 279 280 279 279 276 274 273 272 273 275 278 283 287 289 291 292 292 291 289 286 282 281 280 281 281 279 279 278 276 274 273 271 270 272 275 276 277 277 276 276 274 274 281 284 278 275 279 288 296 299 303 307 305 288 253 257 323 329 328 328 321 306 279 271 268 240 248 279 279 288 309 322 325 325 324 327 329 327 329 330 330 330 330 329 328
274 274 276 278 277 277 276 275 273 272 271 273 277 281 283 285 288 289 290 290 290 287 283 279 278 279 278 277 277 276 273 271 272 271 269 271 272 272 273 273 272 270 271 273 274 279 285 285 283 288 295 300 302 306 302 289 280 258 266 313 321 324 323 301 282 292 297 291 269 256 261 278 292 315 324 322 323 324 327 329 328 329 330 330 330 329 329 328
273 274 276 276 274 274 273 271 270 269 272 277 281 282 282 284 285 286 287 288 287 283 279 277 278 279 277 275 274 271 268 268 270 269 269 271 270 269 269 268 266 266 268 272 276 281 288 290 289 293 300 304 305 306 290 274 270 257 277 307 313 317 319 302 291 293 290 284 276 258 251 281 300 320 323 320 323 326 328 329 329 330 331 331 330 329 329 329
273 273 273 272 271 271 269 268 270 273 277 280 281 281 281 281 282 283 285 285 282 279 277 276 278 278 275 273 270 267 264 263 264 267 268 267 266 266 265 264 265 266 269 273 276 283 288 285 287 298 309 319 322 304 269 282 275 270 291 308 310 314 319 310 305 299 277 277 281 255 249 288 306 322 321 321 326 326 328 330 330 331 331 331 330 329 329 328
270 270 270 270 269 269 269 270 273 275 277 278 278 279 279 277 279 282 283 282 279 276 275 275 276 274 272 269 266 264 262 260 262 264 264 264 264 265 264 263 264 266 272 276 278 284 285 279 279 283 281 283 288 287 293 297 294 293 301 307 307 313 317 312 309 296 275 293 292 274 272 295 310 322 321 323 328 327 329 331 331 332 331 330 330 329 328 328
266 266 267 268 269 269 271 272 272 271 274 275 275 277 276 275 278 281 280 278 277 274 273 273 272 269 267 265 262 261 260 260 261 261 261 264 264 264 265 263 264 270 274 277 281 285 283 280 281 277 268 272 283 292 298 297 294 299 305 307 310 316 317 312 304 287 290 301 294 287 293 302 311 320 322 325 328 328 329 331 331 331 330 329 329 328 329 328
258 260 263 265 268 270 271 271 269 270 273 273 271 273 275 275 276 276 275 274 274 273 272 270 268 265 264 264 260 259 260 259 259 258 259 261 262 264 266 265 269 274 275 279 284 285 282 281 283 285 287 289 289 295 300 294 291 298 303 307 313 319 317 308 297 296 305 298 287 298 309 308 310 319 323 325 327 328 329 330 330 329 328 329 329 330 330 330
254 258 264 265 264 266 268 270 272 273 273 271 269 270 271 272 272 273 273 273 273 272 270 267 268 267 266 263 260 259 259 258 257 257 256 259 263 265 267 269 272 274 276 281 285 287 285 285 289 294 294 293 291 297 301 294 290 295 300 305 311 315 315 307 301 310 313 292 288 305 313 308 311 320 324 325 327 327 328 329 328 328 330 331 331 331 331 331
254 257 262 263 263 266 269 272 273 270 269 268 267 267 268 270 272 273 272 271 271 270 269 269 272 271 264 260 258 256 257 255 255 258 260 263 267 267 268 270 272 275 279 282 286 289 287 288 295 297 294 292 293 297 300 293 287 297 303 306 310 312 310 307 309 319 315 299 300 310 310 309 316 323 325 325 326 327 328 329 328 330 334 334 333 333 333 333
255 259 263 263 264 267 269 270 268 265 266 264 262 264 267 268 271 273 271 270 269 270 271 273 274 271 262 258 257 255 256 256 258 264 269 270 269 268 268 269 272 277 279 282 286 287 284 287 292 294 293 293 295 299 300 292 295 307 308 308 312 312 309 310 314 319 315 309 312 315 312 314 322 327 327 326 326 327 329 329 330 334 336 335 334 335 335 333
257 260 262 261 262 266 268 266 265 263 261 260 259 263 265 267 273 275 272 270 269 270 273 274 272 266 259 256 255 254 253 255 259 265 269 270 269 267 267 269 271 274 277 281 284 282 280 282 286 291 292 290 295 302 298 297 307 304 299 308 322 317 312 313 315 318 316 314 316 317 314 318 325 328 327 326 327 329 330 330 332 336 337 335 336 337 336 333
255 257 259 258 259 262 264 262 261 258 258 260 262 264 266 270 274 273 267 266 268 270 272 271 267 262 259 258 257 253 249 249 256 263 265 266 268 268 268 269 270 272 276 278 277 276 276 278 281 286 284 283 292 300 298 306 311 290 291 326 331 320 315 315 315 318 319 317 316 314 314 319 325 327 326 327 328 330 330 331 333 336 336 336 337 338 336 334
Height
3204 3203 3203 3202 3201 3200 3200 3199 3198 3197 3196 3195 3194 3193 3192 3190 3189 3187 3186 3184 3182 3180 3178 3177 3175 3172 3169 3167 3165 3163 3161 3159 3158 3156 3155 3154 3153 3152 3152 3151 3151 3150 3149 3148 3148 3147 3147 3146 3145 3144 3143 3142 3141 3140 3139 3139 3138 3137 3136 3135 3134 3133 3133 3133 3132 3131 3131 3130 3129 3128 3126 3124 3124 3122 3120 3120 3120 3120 3119 3119 3117 3116 3115 3113 3111 3109 3108 3107
3204 3203 3202 3202 3201 3200 3199 3199 3198 3197 3195 3194 3193 3193 3192 3190 3189 3187 3185 3183 3182 3180 3178 3176 3174 3172 3169 3167 3164 3162 3160 3159 3157 3156 3154 3153 3152 3152 3152 3151 3150 3149 3148 3148 3147 3147 3146 3145 3144 3143 3142 3141 3140 3139 3138 3138 3137 3136 3135 3135 3134 3133 3132 3132 3131 3129 3128 3128 3128 3127 3125 3124 3123 3120 3117 3116 3117 3119 3118 3117 3115 3114 3114 3113 3111 3109 3107 3106
3204 3203 3202 3201 3200 3199 3199 3198 3197 3196 3195 3194 3193 3192 3191 3190 3188 3187 3185 3183 3181 3179 3177 3176 3174 3172 3169 3166 3164 3162 3160 3158 3156 3155 3154 3153 3152 3152 3151 3150 3150 3149 3148 3148 3147 3146 3146 3145 3144 3143 3142 3141 3140 3139 3138 3137 3136 3136 3135 3134 3134 3132 3132 3131 3129 3128 3127 3126 3126 3125 3124 3123 3123 3120 3117 3114 3114 3117 3116 3114 3113 3112 3113 3112 3111 3110 3107 3105
3204 3203 3202 3201 3200 3199 3198 3197 3196 3196 3195 3194 3193 3192 3191 3189 3188 3186 3184 3182 3180 3178 3176 3175 3173 3171 3168 3166 3163 3161 3159 3157 3156 3154 3153 3153 3152 3151 3150 3150 3149 3148 3148 3147 3146 3145 3144 3143 3142 3141 3141 3139 3139 3138 3137 3136 3136 3135 3134 3133 3132 3131 3131 3130 3127 3126 3125 3124 3123 3123 3122 3121 3121 3119 3117 3114 3112 3115 3115 3112 3111 3111 3110 3110 3110 3109 3107 3104
3203 3202 3201 3200 3199 3198 3197 3196 3195 3195 3194 3193 3192 3191 3190 3188 3187 3186 3184 3181 3179 3177 3176 3174 3172 3170 3167 3165 3163 3160 3158 3156 3155 3154 3153 3152 3151 3150 3150 3149 3149 3148 3147 3146 3145 3144 3143 3142 3141 3140 3139 3138 3137 3137 3136 3135 3135 3135 3134 3132 3131 3129 3129 3129 3125 3124 3123 3122 3121 3121 3121 3120 3119 3118 3116 3114 3112 3113 3113 3112 3110 3110 3109 3108 3107 3106 3104 3102
3202 3201 3201 3200 3199 3197 3196 3195 3194 3194 3193 3193 3191 3190 3189 3188 3186 3185 3183 3181 3179 3176 3174 3172 3171 3169 3166 3164 3162 3159 3157 3156 3155 3154 3152 3151 3150 3149 3149 3149 3148 3147 3146 3145 3144 3143 3142 3141 3140 3139 3138 3137 3136 3136 3135 3134 3133 3133 3132 3131 3130 3128 3127 3126 3124 3122 3120 3119 3119 3119 3119 3118 3116 3115 3114 3113 3112 3112 3112 3111 3109 3107 3106 3104 3103 3102 3101 3099
3201 3201 3200 3199 3198 3197 3196 3195 3194 3193 3192 3192 3190 3189 3188 3187 3186 3184 3182 3180 3178 3175 3173 3171 3169 3168 3165 3163 3161 3158 3156 3155 3155 3153 3152 3151 3150 3149 3149 3148 3148 3147 3146 3144 3143 3142 3141 3140 3139 3138 3137 3136 3135 3134 3134 3133 3132 3131 3131 3130 3129 3127 3125 3124 3123 3121 3118 3117 3116 3117 3118 3118 3115 3112 3112 3112 3110 3110 3109 3108 3106 3104 3103 3101 3100 3098 3097 3095
3200 3200 3199 3198 3197 3196 3195 3194 3193 3192 3191 3190 3189 3188 3187 3186 3185 3183 3181 3179 3177 3174 3172 3170 3168 3167 3164 3162 3160 3157 3156 3155 3154 3153 3152 3151 3150 3149 3148 3148 3147 3146 3145 3143 3142 3141 3140 3139 3138 3137 3136 3135 3134 3133 3132 3131 3130 3129 3128 3128 3127 3126 3124 3123 3121 3119 3117 3115 3113 3113 3115 3117 3115 3111 3111 3111 3108 3108 3107 3105 3104 3102 3101 3099 3097 3095 3093 3091
3199 3198 3198 3197 3196 3195 3194 3193 3192 3191 3190 3189 3188 3187 3186 3185 3184 3182 3181 3178 3176 3173 3171 3169 3167 3165 3163 3162 3160 3157 3156 3154 3154 3153 3152 3150 3150 3149 3148 3147 3146 3145 3144 3143 3141 3140 3139 3138 3136 3135 3134 3133 3133 3132 3130 3129 3128 3127 3126 3125 3125 3124 3124 3122 3120 3118 3116 3113 3110 3109 3111 3115 3115 3111 3110 3109 3107 3106 3106 3104 3102 3099 3097 3095 3093 3091 3088 3086
3198 3197 3196 3195 3194 3194 3193 3192 3191 3190 3189 3188 3187 3186 3185 3183 3182 3181 3180 3177 3175 3173 3170 3168 3166 3164 3162 3160 3159 3157 3155 3154 3153 3152 3151 3150 3149 3148 3147 3146 3145 3144 3143 3142 3140 3139 3138 3136 3135 3134 3133 3132 3131 3130 3128 3127 3126 3124 3124 3124 3123 3122 3122 3120 3118 3116 3114 3112 3107 3104 3106 3110 3112 3110 3108 3107 3105 3104 3104 3102 3099 3096 3094 3091 3089 3086 3083 3081
3197 3196 3195 3194 3193 3192 3192 3191 3190 3189 3188 3187 3186 3184 3183 3182 3181 3180 3178 3176 3174 3171 3169 3167 3165 3163 3161 3159 3158 3156 3155 3153 3153 3152 3150 3149 3148 3147 3147 3146 3145 3144 3143 3141 3139 3138 3137 3135 3134 3133 3131 3130 3129 3128 3127 3125 3124 3122 3121 3121 3121 3121 3120 3118 3116 3114 3112 3110 3105 3100 3099 3104 3107 3108 3107 3105 3102 3102 3101 3099 3096 3093 3089 3086 3084 3081 3078 3076
3195 3194 3194 3193 3192 3191 3190 3189 3189 3188 3187 3185 3184 3183 3182 3181 3180 3178 3177 3175 3172 3170 3168 3166 3164 3161 3159 3158 3156 3155 3154 3153 3152 3151 3150 3149 3148 3147 3146 3145 3144 3143 3142 3140 3138 3137 3136 3134 3133 3132 3130 3129 3128 3126 3125 3124 3122 3121 3119 3118 3118 3119 3119 3117 3115 3113 3110 3107 3104 3097 3093 3098 3102 3102 3103 3102 3100 3099 3098 3096 3093 3089 3085 3081 3078 3075 3073 3072
3194 3193 3192 3191 3190 3190 3189 3188 3187 3186 3185 3184 3183 3182 3181 3180 3178 3177 3175 3173 3171 3169 3167 3165 3163 3160 3158 3156 3155 3154 3153 3152 3151 3150 3149 3148 3147 3146 3145 3144 3143 3142 3141 3139 3137 3136 3134 3133 3132 3130 3129 3128 3126 3125 3124 3122 3121 3119 3118 3116 3114 3114 3117 3117 3113 3110 3109 3106 3103 3098 3090 3091 3097 3098 3098 3098 3097 3095 3094 3093 3090 3086 3081 3076 3073 3070 3069 3068
3192 3191 3191 3190 3189 3188 3187 3186 3185 3184 3183 3182 3181 3180 3179 3178 3176 3175 3173 3171 3169 3168 3166 3164 3161 3159 3157 3155 3154 3153 3152 3151 3151 3150 3149 3147 3146 3145 3144 3143 3142 3141 3140 3138 3136 3134 3133 3131 3130 3129 3127 3126 3125 3124 3123 3121 3119 3118 3116 3115 3113 3110 3111 3114 3112 3107 3105 3102 3101 3098 3088 3086 3092 3095 3095 3094 3092 3091 3090 3089 3086 3082 3077 3072 3070 3067 3065 3063
3190 3190 3189 3188 3187 3186 3185 3184 3183 3182 3181 3180 3179 3178 3177 3176 3175 3173 3171 3170 3168 3166 3165 3163 3160 3157 3155 3154 3153 3153 3152 3151 3150 3149 3148 3147 3145 3144 3143 3142 3141 3140 3139 3137 3135 3133 3131 3130 3129 3128 3126 3124 3123 3122 3122 3121 3119 3117 3114 3113 3112 3109 3106 3109 3110 3105 3101 3098 3098 3095 3085 3081 3085 3090 3093 3092 3089 3087 3086 3084 3082 3077 3072 3069 3067 3064 3061 3058
3188 3188 3187 3186 3185 3184 3183 3182 3181 3180 3179 3178 3177 3176 3175 3174 3172 3171 3169 3168 3166 3165 3163 3161 3158 3156 3153 3152 3152 3152 3151 3150 3149 3148 3147 3146 3145 3144 3143 3142 3140 3139 3138 3136 3133 3131 3130 3129 3128 3127 3125 3123 3122 3121 3121 3120 3118 3118 3115 3111 3109 3107 3104 3103 3105 3103 3099 3094 3094 3094 3085 3078 3080 3084 3088 3090 3087 3084 3081 3080 3078 3073 3069 3067 3064 3061 3058 3055
3186 3186 3185 3184 3183 3182 3181 3180 3179 3178 3177 3175 3175 3174 3173 3171 3170 3169 3167 3166 3165 3163 3161 3159 3156 3154 3152 3151 3151 3150 3150 3149 3148 3148 3147 3146 3145 3144 3142 3141 3139 3138 3137 3135 3132 3130 3129 3128 3127 3126 3124 3122 3121 3120 3119 3118 3117 3116 3114 3110 3107 3105 3103 3100 3100 3099 3096 3090 3089 3089 3084 3077 3077 3080 3083 3085 3085 3081 3078 3076 3073 3070 3066 3064 3061 3058 3055 3051
3184 3183 3182 3182 3181 3180 3179 3178 3177 3176 3174 3173 3172 3171 3171 3169 3168 3167 3166 3165 3164 3162 3159 3156 3154 3152 3150 3149 3149 3149 3149 3148 3148 3147 3146 3145 3144 3143 3141 3140 3138 3136 3135 3134 3131 3130 3128 3127 3125 3125 3123 3121 3120 3119 3117 3117 3115 3113 3110 3107 3104 3101 3100 3100 3098 3095 3091 3087 3085 3082 3077 3072 3072 3076 3080 3082 3082 3079 3077 3073 3068 3065 3063 3060 3057 3054 3051 3047
3182 3181 3180 3179 3178 3178 3177 3175 3174 3173 3172 3171 3169 3168 3168 3167 3167 3166 3166 3164 3161 3158 3155 3153 3151 3150 3149 3148 3148 3148 3148 3148 3147 3146 3145 3144 3143 3142 3140 3139 3136 3134 3134 3133 3131 3129 3127 3125 3124 3123 3123 3121 3120 3118 3117 3116 3114 3112 3109 3106 3103 3098 3096 3099 3099 3096 3090 3084 3082 3080 3073 3065 3065 3072 3077 3077 3077 3076 3074 3070 3063 3060 3058 3055 3052 3050 3047 3044
3179 3179 3178 3176 3176 3175 3174 3173 3172 3170 3169 3168 3167 3166 3164 3163 3162 3161 3162 3161 3158 3156 3154 3151 3149 3147 3147 3147 3147 3147 3147 3146 3146 3145 3143 3143 3142 3140 3139 3138 3136 3133 3132 3131 3129 3127 3125 3123 3122 3122 3121 3120 3119 3117 3116 3116 3114 3112 3109 3106 3104 3099 3094 3096 3098 3095 3091 3085 3080 3079 3073 3061 3062 3071 3073 3072 3072 3070 3070 3066 3059 3057 3054 3050 3047 3045 3042 3040
3177 3176 3175 3174 3173 3173 3172 3171 3169 3167 3166 3165 3164 3162 3159 3158 3156 3154 3154 3156 3156 3154 3152 3149 3147 3146 3146 3146 3146 3146 3145 3145 3144 3143 3142 3141 3140 3138 3137 3135 3133 3131 3130 3129 3127 3125 3124 3122 3121 3121 3120 3119 3118 3116 3115 3115 3113 3111 3108 3104 3102 3100 3093 3092 3096 3093 3090 3087 3079 3078 3072 3057 3059 3070 3068 3068 3069 3066 3065 3061 3056 3053 3051 3047 3043 3040 3038 3036
3174 3173 3173 3171 3170 3170 3169 3168 3167 3165 3163 3162 3161 3159 3157 3155 3154 3152 3149 3150 3152 3151 3149 3147 3145 3145 3145 3145 3144 3144 3144 3143 3142 3141 3140 3139 3138 3136 3134 3132 3130 3128 3127 3126 3125 3123 3123 3122 3120 3119 3119 3117 3116 3115 3113 3112 3111 3109 3107 3103 3100 3099 3093 3087 3090 3090 3088 3087 3078 3077 3071 3052 3055 3067 3063 3063 3067 3064 3060 3056 3053 3050 3047 3044 3040 3036 3034 3031
3172 3171 3170 3169 3168 3167 3167 3165 3164 3163 3161 3160 3158 3157 3155 3153 3152 3150 3148 3147 3148 3148 3146 3145 3144 3144 3143 3143 3143 3143 3142 3141 3140 3139 3138 3137 3135 3134 3131 3130 3129 3126 3125 3124 3122 3121 3120 3120 3119 3118 3117 3116 3115 3113 3111 3109 3109 3107 3105 3102 3099 3097 3094 3086 3083 3082 3081 3082 3076 3074 3068 3049 3051 3062 3060 3061 3064 3061 3057 3052 3051 3048 3043 3041 3037 3034 3030 3027
3169 3168 3168 3167 3165 3165 3164 3163 3162 3161 3160 3158 3156 3155 3153 3151 3149 3148 3146 3145 3145 3145 3144 3143 3142 3142 3142 3142 3142 3141 3140 3139 3138 3136 3136 3134 3132 3130 3128 3127 3125 3124 3122 3122 3121 3119 3118 3118 3117 3116 3115 3113 3112 3111 3110 3107 3106 3106 3103 3102 3098 3096 3096 3090 3084 3078 3073 3074 3072 3070 3064 3046 3048 3057 3055 3058 3060 3056 3053 3049 3047 3045 3041 3039 3034 3031 3028 3024
3166 3166 3165 3164 3163 3162 3161 3161 3160 3159 3158 3156 3154 3153 3151 3150 3147 3145 3144 3143 3142 3142 3141 3141 3140 3141 3141 3140 3140 3139 3138 3137 3135 3134 3133 3132 3130 3128 3126 3125 3123 3121 3120 3119 3119 3118 3117 3116 3115 3114 3113 3111 3110 3108 3107 3105 3103 3103 3102 3101 3099 3096 3094 3091 3087 3081 3072 3069 3067 3070 3065 3044 3043 3054 3051 3053 3055 3049 3047 3045 3043 3041 3037 3034 3031 3027 3025 3022
3163 3163 3163 3162 3161 3160 3159 3158 3158 3157 3156 3154 3152 3151 3149 3148 3146 3144 3142 3141 3139 3139 3139 3138 3138 3138 3138 3138 3137 3136 3135 3133 3132 3132 3130 3129 3128 3127 3124 3123 3121 3119 3118 3116 3116 3116 3115 3114 3112 3111 3110 3108 3107 3106 3104 3103 3101 3101 3100 3099 3098 3095 3093 3090 3087 3083 3075 3069 3065 3071 3071 3049 3040 3050 3050 3051 3051 3045 3043 3042 3039 3037 3034 3030 3027 3024 3022 3019
3161 3161 3160 3159 3158 3157 3156 3156 3155 3154 3153 3152 3150 3149 3147 3146 3144 3143 3141 3139 3137 3137 3137 3137 3136 3136 3135 3135 3135 3134 3132 3130 3129 3127 3127 3126 3125 3124 3122 3121 3120 3118 3116 3114 3113 3113 3112 3111 3110 3108 3107 3105 3104 3103 3101 3101 3100 3099 3098 3097 3096 3094 3092 3089 3086 3081 3074 3068 3063 3065 3069 3055 3042 3045 3048 3048 3047 3043 3040 3038 3036 3034 3031 3028 3025 3021 3019 3016
3158 3158 3157 3156 3155 3155 3154 3153 3152 3151 3151 3150 3148 3147 3145 3144 3143 3142 3142 3140 3136 3134 3135 3135 3134 3133 3132 3132 3132 3131 3129 3128 3126 3124 3123 3123 3121 3121 3119 3117 3117 3116 3114 3112 3110 3110 3109 3108 3107 3105 3104 3102 3101 3100 3099 3098 3098 3097 3096 3095 3093 3091 3089 3086 3082 3077 3070 3065 3061 3061 3063 3057 3044 3042 3046 3044 3041 3038 3036 3034 3032 3031 3029 3026 3023 3020 3017 3015
3155 3154 3154 3153 3152 3152 3152 3151 3150 3149 3149 3147 3146 3145 3143 3143 3142 3141 3142 3140 3134 3131 3132 3132 3131 3130 3130 3129 3129 3128 3126 3125 3125 3122 3120 3119 3118 3117 3116 3114 3114 3112 3111 3110 3108 3108 3107 3105 3104 3102 3100 3099 3098 3097 3097 3097 3097 3095 3094 3092 3091 3088 3085 3083 3078 3072 3067 3062 3060 3060 3060 3057 3043 3037 3042 3040 3036 3035 3033 3032 3031 3029 3027 3023 3021 3018 3015 3012
3151 3151 3151 3150 3150 3149 3149 3148 3148 3147 3146 3145 3144 3143 3142 3141 3141 3141 3141 3137 3131 3130 3130 3128 3128 3128 3127 3126 3125 3124 3123 3121 3121 3120 3118 3116 3115 3114 3112 3111 3110 3109 3108 3107 3106 3106 3105 3102 3100 3098 3097 3096 3095 3095 3095 3095 3095 3093 3091 3088 3085 3083 3080 3078 3073 3069 3065 3058 3056 3057 3057 3058 3047 3035 3037 3037 3034 3034 3031 3030 3028 3026 3023 3020 3018 3016 3012 3008
3148 3148 3148 3147 3147 3146 3146 3146 3145 3144 3144 3143 3142 3141 3140 3139 3139 3141 3138 3132 3129 3128 3127 3126 3125 3124 3124 3123 3121 3120 3119 3118 3117 3116 3115 3113 3112 3111 3110 3109 3107 3105 3104 3104 3103 3103 3102 3100 3098 3095 3094 3094 3094 3094 3093 3094 3093 3091 3089 3085 3081 3077 3073 3070 3067 3068 3064 3053 3051 3053 3052 3055 3047 3035 3034 3035 3033 3033 3029 3027 3025 3022 3020 3018 3015 3013 3008 3004
3145 3145 3145 3144 3143 3143 3143 3143 3142 3142 3142 3140 3140 3139 3138 3138 3136 3135 3132 3129 3128 3126 3124 3124 3123 3121 3120 3118 3117 3116 3115 3114 3113 3112 3111 3110 3108 3108 3108 3107 3105 3103 3101 3100 3099 3099 3098 3097 3095 3093 3092 3092 3092 3092 3092 3091 3090 3089 3086 3084 3081 3078 3072 3067 3064 3064 3058 3047 3047 3051 3050 3047 3039 3032 3033 3032 3031 3031 3028 3027 3024 3020 3018 3015 3011 3008 3003 2999
3142 3142 3142 3141 3140 3140 3140 3139 3139 3139 3138 3138 3138 3137 3137 3137 3133 3129 3128 3129 3127 3125 3123 3122 3120 3118 3117 3114 3113 3112 3111 3110 3109 3108 3107 3106 3105 3104 3104 3104 3103 3102 3099 3097 3096 3095 3095 3093 3091 3091 3090 3091 3091 3090 3090 3088 3087 3086 3084 3084 3083 3082 3079 3072 3063 3059 3053 3042 3038 3045 3046 3038 3031 3029 3030 3029 3028 3028 3027 3026 3023 3019 3016 3011 3007 3003 2999 2995
3138 3138 3138 3137 3137 3137 3136 3136 3136 3136 3135 3135 3135 3134 3135 3133 3128 3125 3126 3126 3125 3123 3121 3120 3117 3115 3113 3111 3110 3109 3108 3106 3105 3105 3104 3103 3102 3100 3100 3100 3099 3099 3097 3095 3094 3092 3092 3091 3089 3088 3088 3088 3088 3088 3087 3085 3084 3083 3083 3083 3082 3082 3082 3076 3066 3062 3059 3046 3032 3036 3038 3030 3027 3029 3028 3026 3025 3025 3025 3023 3020 3017 3014 3009 3004 2999 2995 2990
3134 3134 3134 3134 3133 3133 3133 3133 3132 3132 3132 3131 3131 3131 3130 3127 3124 3123 3123 3122 3122 3121 3119 3117 3115 3111 3108 3107 3106 3106 3106 3104 3102 3102 3101 3100 3099 3097 3097 3097 3096 3096 3095 3094 3092 3090 3089 3088 3087 3086 3086 3085 3084 3085 3084 3082 3082 3081 3081 3081 3080 3079 3078 3074 3068 3065 3066 3055 3037 3032 3030 3024 3025 3026 3024 3023 3021 3022 3022 3018 3014 3011 3008 3004 2999 2994 2991 2986
3130 3130 3129 3129 3129 3130 3130 3129 3129 3128 3128 3128 3127 3125 3122 3121 3121 3121 3120 3119 3119 3118 3116 3114 3111 3108 3105 3103 3102 3102 3103 3101 3100 3099 3098 3097 3096 3094 3094 3094 3093 3093 3092 3092 3091 3088 3086 3084 3084 3084 3083 3082 3081 3081 3080 3079 3079 3079 3078 3078 3077 3075 3072 3071 3070 3067 3066 3059 3042 3032 3024 3017 3020 3020 3016 3017 3017 3016 3015 3011 3009 3006 3002 2998 2993 2989 2985 2981
3125 3125 3125 3125 3125 3126 3125 3125 3125 3124 3124 3124 3122 3118 3116 3116 3117 3118 3117 3116 3116 3115 3114 3111 3108 3105 3102 3100 3099 3099 3099 3099 3097 3096 3095 3094 3092 3090 3090 3090 3090 3090 3090 3089 3088 3087 3084 3080 3080 3080 3080 3079 3078 3077 3075 3075 3076 3076 3075 3074 3072 3072 3069 3069 3070 3068 3066 3058 3042 3033 3024 3016 3017 3015 3011 3013 3014 3011 3010 3007 3004 3001 2997 2993 2989 2984 2981 2976
3120 3120 3119 3120 3121 3121 3121 3121 3121 3120 3120 3118 3115 3112 3111 3111 3113 3114 3114 3113 3113 3112 3111 3109 3106 3102 3100 3098 3097 3096 3097 3096 3094 3094 3093 3092 3089 3087 3087 3087 3086 3087 3087 3086 3085 3084 3082 3078 3075 3075 3077 3077 3076 3074 3072 3072 3072 3071 3071 3071 3070 3070 3068 3067 3069 3067 3065 3058 3044 3034 3025 3016 3015 3012 3008 3010 3010 3007 3007 3004 3001 2996 2993 2989 2984 2980 2976 2971
3116 3114 3113 3115 3117 3117 3117 3117 3116 3116 3115 3111 3109 3108 3107 3106 3108 3109 3109 3109 3109 3108 3106 3105 3103 3100 3097 3096 3095 3094 3093 3092 3092 3092 3091 3089 3087 3084 3084 3084 3083 3083 3083 3082 3081 3080 3080 3078 3073 3071 3073 3074 3072 3071 3070 3069 3069 3068 3067 3068 3067 3067 3065 3063 3064 3063 3060 3057 3049 3039 3026 3012 3009 3010 3008 3009 3008 3006 3005 3002 2998 2994 2990 2986 2980 2975 2971 2966
3111 3109 3108 3111 3113 3112 3112 3112 3111 3111 3109 3105 3104 3104 3103 3103 3103 3104 3104 3105 3104 3103 3101 3100 3099 3097 3094 3093 3092 3091 3090 3089 3088 3089 3088 3086 3084 3082 3081 3080 3080 3079 3079 3079 3078 3077 3077 3076 3072 3069 3070 3071 3070 3068 3067 3066 3066 3065 3065 3065 3063 3063 3062 3059 3058 3056 3055 3056 3053 3048 3030 3007 3004 3011 3010 3009 3007 3005 3004 3000 2995 2991 2987 2982 2977 2971 2966 2960
3107 3104 3103 3107 3108 3107 3108 3107 3105 3105 3103 3099 3099 3100 3099 3099 3098 3098 3099 3099 3098 3098 3097 3095 3094 3093 3091 3089 3088 3088 3087 3086 3085 3085 3083 3082 3081 3080 3078 3077 3077 3077 3076 3075 3074 3074 3073 3072 3068 3066 3066 3067 3066 3065 3063 3062 3062 3062 3062 3062 3061 3060 3059 3057 3055 3051 3052 3053 3052 3052 3033 3003 3001 3013 3012 3008 3006 3003 3003 2999 2992 2988 2982 2977 2972 2966 2960 2954
3101 3099 3099 3102 3102 3102 3102 3101 3099 3099 3096 3094 3095 3096 3095 3094 3093 3093 3093 3093 3093 3092 3090 3089 3088 3088 3087 3085 3084 3084 3083 3081 3080 3080 3078 3076 3077 3076 3075 3074 3074 3074 3073 3072 3071 3071 3070 3068 3064 3061 3062 3062 3061 3060 3060 3059 3059 3059 3059 3059 3059 3058 3057 3057 3055 3049 3048 3046 3044 3049 3031 2999 2999 3013 3010 3007 3005 3000 2999 2996 2989 2983 2977 2971 2966 2960 2953 2947
3095 3094 3095 3096 3096 3097 3097 3094 3092 3092 3090 3090 3091 3091 3090 3089 3088 3087 3087 3088 3087 3085 3084 3083 3082 3082 3081 3080 3079 3078 3079 3077 3075 3074 3073 3072 3072 3072 3071 3071 3071 3071 3070 3069 3068 3068 3067 3065 3061 3057 3057 3058 3057 3057 3057 3057 3057 3057 3056 3056 3055 3055 3054 3053 3051 3048 3045 3039 3038 3043 3025 2996 2999 3012 3007 3003 3002 2998 2995 2991 2985 2978 2970 2964 2959 2952 2946 2939
3090 3089 3089 3089 3090 3090 3089 3086 3085 3086 3086 3086 3086 3084 3084 3083 3082 3082 3082 3082 3081 3079 3078 3077 3077 3076 3075 3075 3074 3073 3074 3073 3070 3069 3068 3068 3068 3068 3068 3068 3067 3067 3068 3067 3066 3066 3064 3062 3060 3057 3055 3055 3054 3055 3056 3055 3056 3054 3053 3053 3051 3051 3051 3048 3047 3046 3042 3034 3033 3035 3019 2997 2999 3007 3001 2999 2998 2993 2991 2986 2981 2974 2964 2958 2953 2945 2939 2932
3086 3083 3081 3082 3084 3083 3080 3080 3081 3081 3081 3081 3080 3078 3078 3076 3075 3076 3077 3077 3075 3074 3073 3071 3071 3071 3070 3070 3069 3068 3068 3068 3067 3066 3065 3065 3065 3065 3065 3065 3065 3065 3065 3065 3064 3063 3061 3059 3059 3059 3057 3056 3054 3054 3055 3054 3053 3051 3049 3049 3048 3048 3047 3044 3044 3044 3038 3030 3026 3024 3013 2999 2999 3002 2997 2994 2992 2988 2985 2981 2976 2970 2960 2953 2947 2940 2933 2925
3080 3077 3074 3075 3076 3075 3073 3074 3075 3075 3075 3076 3073 3071 3071 3070 3070 3071 3072 3071 3070 3069 3068 3066 3066 3066 3065 3065 3064 3064 3063 3063 3063 3062 3061 3062 3062 3062 3062 3062 3062 3063 3062 3062 3061 3061 3058 3055 3056 3056 3055 3055 3054 3053 3053 3052 3050 3048 3045 3043 3043 3044 3043 3041 3040 3039 3035 3027 3018 3015 3011 3000 2996 2997 2993 2988 2986 2982 2978 2975 2970 2964 2956 2950 2943 2934 2925 2918
3074 3069 3068 3071 3071 3068 3066 3066 3067 3068 3069 3070 3067 3064 3064 3065 3065 3066 3066 3065 3064 3063 3062 3061 3060 3060 3060 3059 3059 3059 3059 3059 3059 3058 3058 3059 3059 3060 3060 3059 3059 3060 3059 3059 3058 3058 3055 3052 3053 3053 3050 3051 3051 3050 3050 3050 3048 3046 3043 3038 3037 3039 3038 3036 3035 3033 3032 3026 3012 3008 3010 3002 2994 2995 2991 2984 2982 2978 2974 2971 2966 2959 2952 2945 2937 2927 2918 2909
3067 3062 3063 3066 3065 3061 3059 3058 3061 3063 3063 3063 3061 3058 3058 3059 3059 3059 3060 3060 3059 3058 3057 3054 3053 3055 3055 3055 3056 3056 3055 3055 3055 3054 3055 3056 3057 3058 3057 3057 3056 3056 3057 3056 3055 3055 3053 3050 3050 3050 3047 3047 3048 3048 3047 3046 3045 3044 3041 3036 3034 3034 3033 3031 3030 3028 3028 3023 3010 3005 3007 3001 2994 2993 2990 2984 2979 2975 2971 2967 2961 2954 2947 2938 2929 2920 2910 2901
3060 3057 3058 3060 3057 3055 3054 3055 3056 3057 3056 3055 3053 3051 3052 3052 3052 3054 3056 3055 3052 3051 3051 3049 3048 3050 3050 3051 3052 3051 3050 3051 3050 3051 3053 3054 3055 3055 3054 3055 3054 3054 3054 3054 3053 3053 3051 3048 3047 3046 3043 3042 3044 3045 3044 3043 3042 3041 3038 3034 3032 3031 3029 3027 3026 3025 3023 3018 3009 3005 3002 2998 2994 2992 2987 2981 2976 2971 2967 2962 2955 2948 2938 2929 2921 2913 2903 2893
3052 3051 3053 3053 3050 3049 3050 3049 3049 3049 3048 3048 3044 3042 3044 3045 3045 3048 3049 3047 3045 3044 3044 3044 3044 3046 3046 3046 3046 3045 3045 3047 3047 3048 3049 3050 3051 3051 3051 3051 3051 3051 3051 3051 3051 3051 3049 3046 3044 3043 3040 3037 3039 3042 3040 3039 3039 3037 3034 3031 3029 3028 3025 3023 3022 3021 3019 3013 3007 3004 2998 2992 2991 2989 2983 2977 2971 2965 2961 2956 2948 2941 2932 2922 2914 2906 2896 2886
3047 3047 3049 3047 3043 3043 3043 3040 3041 3041 3038 3036 3034 3035 3037 3037 3039 3043 3041 3040 3040 3039 3039 3039 3039 3041 3041 3040 3040 3040 3041 3043 3043 3043 3045 3045 3046 3047 3047 3048 3048 3048 3048 3048 3048 3047 3047 3044 3042 3042 3038 3034 3035 3038 3037 3036 3036 3034 3030 3028 3027 3024 3021 3020 3018 3018 3016 3010 3004 3001 2995 2988 2985 2984 2978 2972 2966 2960 2955 2950 2942 2935 2929 2919 2909 2900 2890 2878
3042 3041 3042 3040 3035 3035 3034 3031 3032 3030 3025 3025 3027 3029 3031 3032 3035 3037 3034 3033 3035 3035 3034 3034 3034 3035 3035 3034 3035 3037 3038 3037 3037 3038 3040 3040 3041 3042 3043 3043 3044 3044 3045 3045 3044 3044 3044 3042 3041 3041 3036 3031 3033 3035 3034 3033 3033 3029 3026 3025 3023 3021 3019 3016 3014 3014 3013 3009 3003 2998 2993 2989 2985 2980 2974 2968 2961 2954 2948 2945 2940 2931 2923 2916 2907 2897 2886 2874